Total_Precipitation_Accumulation
1.27 1.24 1.27 1.34 1.37 1.44 1.41 1.30 1.18 1.11 1.11 1.19 1.29 1.31 1.32 1.35 1.32 1.26 1.17 1.13 1.12 1.12 1.16 1.22 1.19 1.15 1.21 1.17 1.12 1.08 1.10 1.23 1.25 0.68 0.50 0.53 0.73 0.93 0.99 1.03 1.07 1.04 0.99
1.20 1.29 1.27 1.29 1.37 1.39 1.33 1.27 1.24 1.18 1.13 1.14 1.26 1.38 1.37 1.35 1.33 1.32 1.28 1.28 1.31 1.27 1.21 1.23 1.25 1.25 1.28 1.26 1.26 1.18 1.07 1.04 1.15 0.96 0.66 0.65 0.78 0.96 1.02 1.07 1.15 1.14 1.07
1.05 1.18 1.29 1.32 1.36 1.39 1.33 1.24 1.24 1.25 1.21 1.17 1.22 1.38 1.44 1.43 1.39 1.31 1.31 1.35 1.42 1.49 1.46 1.44 1.37 1.37 1.38 1.32 1.33 1.29 1.18 1.08 1.07 1.09 0.88 0.76 0.83 0.94 1.08 1.17 1.21 1.21 1.22
0.94 1.09 1.18 1.27 1.37 1.40 1.40 1.36 1.30 1.27 1.26 1.24 1.22 1.28 1.40 1.50 1.55 1.55 1.56 1.50 1.50 1.53 1.56 1.57 1.55 1.54 1.49 1.44 1.45 1.41 1.37 1.37 1.32 1.30 1.15 0.97 0.93 0.96 1.15 1.35 1.44 1.31 1.30
0.82 0.95 1.11 1.18 1.32 1.40 1.40 1.41 1.42 1.42 1.32 1.29 1.27 1.24 1.30 1.56 1.90 1.86 1.75 1.67 1.55 1.46 1.40 1.41 1.49 1.65 1.71 1.78 1.81 1.70 1.68 1.79 1.75 1.66 1.46 1.26 1.13 1.17 1.29 1.39 1.61 1.56 1.47
0.80 0.82 0.96 1.12 1.26 1.38 1.41 1.44 1.43 1.44 1.42 1.34 1.29 1.26 1.30 1.50 1.99 2.04 1.72 1.48 1.35 1.32 1.31 1.23 1.22 1.42 1.52 1.66 1.82 1.83 1.90 2.07 2.16 2.07 1.80 1.53 1.26 1.21 1.33 1.55 1.77 1.95 1.88
0.67 0.68 0.78 0.94 1.10 1.23 1.32 1.39 1.49 1.48 1.44 1.39 1.30 1.24 1.21 1.29 1.72 1.82 1.61 1.31 1.16 1.13 1.15 1.14 1.12 1.15 1.28 1.24 1.42 1.54 1.60 1.78 2.02 2.13 2.09 1.66 1.39 1.28 1.57 1.77 1.82 1.95 1.86
0.60 0.58 0.61 0.72 0.87 1.04 1.21 1.29 1.38 1.48 1.48 1.40 1.31 1.24 1.21 1.17 1.52 1.70 1.58 1.22 1.05 0.97 0.97 0.95 0.96 0.99 1.12 1.28 1.38 1.39 1.31 1.40 1.69 1.89 2.06 1.87 1.66 1.62 1.88 2.17 2.29 2.30 2.09
0.54 0.55 0.54 0.58 0.69 0.85 1.01 1.14 1.23 1.34 1.39 1.36 1.28 1.17 1.13 1.12 1.33 1.66 1.65 1.26 1.08 0.95 0.91 0.91 0.88 0.88 1.17 1.42 1.39 1.31 1.19 1.19 1.37 1.66 1.88 1.98 2.05 2.17 2.34 2.63 2.81 2.77 2.60
0.51 0.50 0.50 0.53 0.58 0.68 0.82 0.97 1.13 1.25 1.32 1.32 1.28 1.17 1.11 1.06 1.23 1.61 1.79 1.34 1.15 1.02 0.94 0.90 1.01 1.05 1.28 1.38 1.29 1.34 1.36 1.21 1.16 1.23 1.34 1.45 1.54 1.71 2.06 2.34 2.60 2.76 2.71
0.48 0.48 0.49 0.49 0.51 0.59 0.72 0.85 1.04 1.18 1.29 1.28 1.21 1.19 1.10 1.07 1.11 1.39 1.80 1.52 1.22 1.12 1.08 1.01 0.97 1.13 1.19 1.26 1.32 1.32 1.46 1.34 1.23 1.32 1.33 1.28 1.31 1.45 1.64 1.93 2.31 2.64 2.83
0.45 0.45 0.45 0.45 0.47 0.53 0.66 0.80 0.96 1.12 1.25 1.26 1.19 1.21 1.19 1.12 1.11 1.30 1.58 1.61 1.39 1.15 1.07 0.96 0.95 1.13 1.17 1.25 1.26 1.37 1.47 1.42 1.31 1.32 1.27 1.23 1.26 1.35 1.47 1.67 1.95 2.21 2.37
0.44 0.45 0.45 0.45 0.48 0.50 0.59 0.74 0.95 1.06 1.17 1.24 1.15 1.16 1.21 1.20 1.22 1.43 1.46 1.48 1.46 1.27 1.22 1.25 1.17 1.22 1.22 1.16 1.22 1.28 1.29 1.25 1.32 1.33 1.21 1.13 1.14 1.26 1.33 1.46 1.63 1.86 2.04
0.44 0.45 0.44 0.47 0.52 0.51 0.56 0.67 0.86 1.02 1.12 1.22 1.15 1.09 1.13 1.22 1.39 1.56 1.50 1.40 1.44 1.40 1.37 1.38 1.34 1.30 1.23 1.18 1.17 1.12 1.09 1.17 1.24 1.23 1.12 1.01 1.01 1.13 1.27 1.39 1.55 1.74 2.00
0.45 0.48 0.47 0.48 0.52 0.56 0.61 0.67 0.78 0.90 1.14 1.34 1.26 1.19 1.28 1.46 1.60 1.77 1.67 1.53 1.54 1.56 1.49 1.40 1.30 1.28 1.28 1.19 1.10 1.04 1.03 1.09 1.13 1.05 1.04 1.02 1.02 1.10 1.19 1.30 1.53 1.70 1.90
0.48 0.49 0.51 0.54 0.55 0.55 0.63 0.73 0.84 0.90 1.00 1.06 1.15 1.24 1.23 1.47 1.55 1.51 1.48 1.43 1.49 1.61 1.54 1.40 1.20 1.12 1.11 1.08 1.06 1.03 0.98 1.00 0.98 0.98 1.04 1.06 1.09 1.14 1.19 1.24 1.45 1.66 1.76
0.54 0.53 0.55 0.56 0.54 0.55 0.61 0.72 0.86 0.93 0.99 1.01 1.05 1.15 1.24 1.38 1.43 1.42 1.40 1.33 1.32 1.33 1.30 1.19 1.08 1.02 0.97 0.95 0.98 0.96 0.94 0.93 0.96 1.00 1.01 1.00 1.03 1.09 1.14 1.21 1.33 1.47 1.56
0.56 0.59 0.63 0.60 0.59 0.60 0.66 0.76 0.87 0.98 1.04 1.07 1.11 1.21 1.29 1.34 1.38 1.42 1.47 1.44 1.39 1.27 1.10 1.06 1.06 1.02 0.98 0.97 0.98 0.99 0.95 0.94 1.00 1.04 1.03 0.98 1.01 1.08 1.12 1.14 1.21 1.34 1.44
0.55 0.58 0.64 0.66 0.65 0.67 0.72 0.81 0.90 0.98 1.04 1.09 1.15 1.33 1.46 1.46 1.46 1.49 1.45 1.28 1.17 1.11 1.06 1.02 1.02 1.06 1.06 1.04 1.01 1.01 1.03 1.02 1.01 1.05 1.03 0.99 0.99 1.06 1.09 1.08 1.13 1.26 1.35
0.56 0.64 0.70 0.72 0.71 0.73 0.77 0.86 0.94 1.01 1.05 1.10 1.15 1.24 1.42 1.51 1.50 1.52 1.40 1.24 1.14 1.07 1.02 1.01 1.00 1.05 1.09 1.08 1.06 1.06 1.07 1.07 1.08 1.09 1.03 0.98 0.99 1.04 1.07 1.07 1.10 1.14 1.17
0.61 0.63 0.70 0.72 0.72 0.77 0.82 0.90 0.97 1.05 1.07 1.07 1.09 1.17 1.38 1.39 1.32 1.26 1.29 1.29 1.22 1.12 1.05 1.05 1.02 1.01 1.03 1.04 1.03 1.04 1.06 1.05 1.05 1.06 1.00 0.93 0.93 1.00 1.01 1.02 1.02 1.00 1.03
0.63 0.66 0.68 0.70 0.75 0.82 0.89 0.94 1.01 1.07 1.06 1.05 1.08 1.17 1.27 1.13 1.09 1.10 1.15 1.21 1.20 1.14 1.06 1.08 1.06 1.01 1.02 1.05 1.06 1.07 1.07 1.04 1.00 0.98 0.96 0.90 0.89 0.92 0.92 0.92 0.90 0.90 0.93
0.65 0.70 0.74 0.75 0.77 0.87 0.93 0.90 0.97 1.04 1.06 1.05 1.06 1.08 1.13 1.12 1.08 1.06 1.10 1.13 1.15 1.12 1.07 1.07 1.05 0.99 0.95 0.97 1.00 1.08 1.15 1.09 1.00 0.98 1.01 0.96 0.90 0.88 0.85 0.82 0.79 0.82 0.87
0.68 0.73 0.80 0.84 0.85 0.85 0.90 0.93 0.95 1.02 1.08 1.07 1.04 1.03 1.09 1.12 1.10 1.07 1.05 1.06 1.09 1.08 1.03 1.05 1.04 0.98 0.92 0.90 0.91 0.94 0.99 1.03 1.03 1.02 1.01 1.00 0.93 0.85 0.83 0.82 0.76 0.76 0.83
0.72 0.77 0.84 0.90 0.92 0.93 0.94 0.96 0.98 1.03 1.08 1.05 1.03 1.02 1.03 1.06 1.08 1.06 1.03 1.03 1.04 1.01 0.95 0.96 1.01 1.00 0.92 0.86 0.84 0.85 0.96 1.02 1.05 1.11 1.17 1.14 0.99 0.84 0.81 0.81 0.78 0.78 0.83
0.73 0.77 0.86 0.91 0.93 0.97 1.00 1.03 1.02 1.03 1.06 1.04 1.01 1.02 1.03 1.06 1.08 1.06 1.03 1.04 1.07 1.03 0.96 0.94 0.95 0.93 0.88 0.86 0.85 0.88 0.92 0.94 0.99 1.09 1.21 1.27 1.11 0.92 0.85 0.84 0.79 0.79 0.82